Change the Weather History Date:

Saturday, December 28, 2013

  Actual Average (KLWD) Record (KLWD)
Temperature  
Mean Temperature 38 °F 24 °F  
Max Temperature 45 °F 33 °F 68 °F (1984)
Min Temperature 30 °F 16 °F 0 °F (1983)
Degree Days  
Heating Degree Days 27 41  
Month to date heating degree days 1059  
Since 1 July heating degree days 2307  
Cooling Degree Days 0 0  
Month to date cooling degree days 0  
Year to date cooling degree days 946  
Moisture  
Dew Point 28 °F    
Average Humidity 69    
Maximum Humidity 87    
Minimum Humidity 54    
Precipitation  
Precipitation 0.00 in 0.03 in 0.27 in (1990)
Month to date precipitation 1.35  
Sea Level Pressure  
Sea Level Pressure 29.93 in    
Wind  
Wind Speed 12 mph (SSW)    
Max Wind Speed 28 mph    
Max Gust Speed 32 mph    
Visibility 10 miles    
Events      
T = Trace of Precipitation, MM = Missing Value Source: NWS Daily Summary

Daily Weather History Graph

Daily Weather History Graph

Search for Another Location

Airport or City:

Trip Planner

Search our weather history database for the weather conditions in past years. The results will help you decide how hot, cold, wet, or windy it might be!

Date:

Astronomy

Dec. 28, 2013 Rise Set
Actual Time 7:39 AM CST 4:53 PM CST
Civil Twilight 7:08 AM CST 5:25 PM CST
Nautical Twilight 6:33 AM CST 5:59 PM CST
Astronomical Twilight 5:59 AM CST 6:33 PM CST
Moon 3:15 AM CST (12/28) 1:46 PM CST (12/28)
Length of Visible Light 10h 17m
Length of Day
9h 14m
Waning Crescent, 19% of the Moon is Illuminated
Dec 28
Waning Crescent
Jan 1
New
Jan 7
First Quarter
Jan 15
Full
Jan 23
Last Quarter

Hourly Weather History & Observations

Time (CST) Temp. Windchill Dew Point Humidity Pressure Visibility Wind Dir Wind Speed Gust Speed Precip Events Conditions
12:15 AM 34.9 °F 27.7 °F 27.9 °F 76% 30.09 in 10.0 mi SSW 9.2 mph - N/A   Clear
12:35 AM 34.9 °F 28.3 °F 27.7 °F 75% 30.08 in 10.0 mi SW 8.1 mph - N/A   Clear
12:55 AM 35.1 °F 27.9 °F 27.5 °F 74% 30.08 in 10.0 mi SW 9.2 mph - N/A   Clear
1:15 AM 34.9 °F 27.7 °F 27.3 °F 74% 30.07 in 10.0 mi SSW 9.2 mph - N/A   Clear
1:35 AM 34.9 °F 27.7 °F 27.1 °F 73% 30.06 in 10.0 mi SSW 9.2 mph - N/A   Clear
1:55 AM 34.2 °F 26.8 °F 27.1 °F 75% 30.06 in 10.0 mi SSW 9.2 mph - N/A   Clear
2:15 AM 34.5 °F 26.2 °F 27.1 °F 74% 30.06 in 10.0 mi SSW 11.5 mph - N/A   Clear
2:35 AM 35.1 °F 26.4 °F 27.0 °F 72% 30.06 in 10.0 mi SSW 12.7 mph - N/A   Clear
2:55 AM 35.4 °F 26.0 °F 27.0 °F 71% 30.05 in 10.0 mi SSW 15.0 mph - N/A   Clear
3:15 AM 35.2 °F 25.8 °F 26.6 °F 71% 30.05 in 10.0 mi SSW 15.0 mph - N/A   Clear
3:35 AM 34.9 °F 25.7 °F 26.6 °F 72% 30.04 in 10.0 mi SSW 13.8 mph - N/A   Clear
3:55 AM 35.1 °F 25.2 °F 26.6 °F 71% 30.03 in 10.0 mi SSW 16.1 mph - N/A   Clear
4:15 AM 34.9 °F 24.9 °F 26.6 °F 72% 30.03 in 10.0 mi SSW 16.1 mph - N/A   Clear
4:35 AM 34.7 °F 25.5 °F 27.0 °F 73% 30.02 in 10.0 mi SSW 13.8 mph - N/A   Clear
4:55 AM 34.5 °F 25.3 °F 27.0 °F 74% 30.01 in 10.0 mi SSW 13.8 mph - N/A   Clear
5:15 AM 34.0 °F 25.0 °F 27.0 °F 75% 30.01 in 10.0 mi SSW 12.7 mph - N/A   Clear
5:35 AM 33.8 °F 25.3 °F 26.8 °F 75% 30.01 in 10.0 mi South 11.5 mph - N/A   Clear
5:55 AM 32.5 °F 23.7 °F 26.6 °F 79% 30.00 in 10.0 mi South 11.5 mph - N/A   Clear
6:15 AM 32.2 °F 23.2 °F 27.0 °F 81% 30.00 in 10.0 mi South 11.5 mph - N/A   Clear
6:35 AM 32.4 °F 24.0 °F 27.1 °F 81% 29.99 in 10.0 mi South 10.4 mph - N/A   Clear
6:55 AM 32.5 °F 23.7 °F 27.1 °F 80% 29.99 in 10.0 mi South 11.5 mph - N/A   Clear
7:15 AM 32.9 °F 24.1 °F 27.3 °F 80% 29.99 in 10.0 mi South 11.5 mph - N/A   Clear
7:35 AM 32.9 °F 23.7 °F 27.5 °F 81% 29.99 in 10.0 mi South 12.7 mph - N/A   Clear
7:55 AM 32.7 °F 23.9 °F 27.5 °F 81% 29.98 in 10.0 mi SSW 11.5 mph - N/A   Clear
8:15 AM 33.3 °F 25.1 °F 27.5 °F 79% 29.98 in 10.0 mi SSW 10.4 mph 17.3 mph N/A   Clear
8:35 AM 33.8 °F 25.8 °F 27.9 °F 79% 29.98 in 10.0 mi SSW 10.4 mph - N/A   Clear
8:55 AM 35.2 °F 26.6 °F 28.2 °F 76% 29.97 in 10.0 mi SSW 12.7 mph - N/A   Clear
9:15 AM 36.7 °F 28.0 °F 28.4 °F 72% 29.97 in 10.0 mi South 13.8 mph - N/A   Clear
9:35 AM 37.6 °F 29.6 °F 28.8 °F 70% 29.97 in 10.0 mi South 12.7 mph - N/A   Clear
9:55 AM 39.0 °F 31.8 °F 28.8 °F 67% 29.97 in 10.0 mi South 11.5 mph 17.3 mph N/A   Clear
10:15 AM 39.6 °F 32.1 °F 28.4 °F 64% 29.97 in 10.0 mi SSW 12.7 mph - N/A   Clear
10:35 AM 40.3 °F 32.6 °F 28.9 °F 64% 29.96 in 10.0 mi South 13.8 mph - N/A   Clear
10:55 AM 40.5 °F 32.8 °F 28.8 °F 63% 29.94 in 10.0 mi SSW 13.8 mph - N/A   Clear
11:15 AM 41.0 °F 33.1 °F 29.1 °F 63% 29.94 in 10.0 mi SSW 15.0 mph - N/A   Clear
11:35 AM 41.7 °F 34.1 °F 28.9 °F 61% 29.93 in 10.0 mi South 15.0 mph - N/A   Clear
11:55 AM 42.3 °F 34.8 °F 28.9 °F 59% 29.92 in 10.0 mi South 15.0 mph - N/A   Clear
12:15 PM 43.0 °F 36.0 °F 29.1 °F 58% 29.91 in 10.0 mi South 13.8 mph - N/A   Clear
12:35 PM 43.5 °F 36.4 °F 29.3 °F 57% 29.90 in 10.0 mi South 15.0 mph - N/A   Clear
12:55 PM 44.1 °F 38.1 °F 29.7 °F 57% 29.88 in 10.0 mi South 11.5 mph - N/A   Clear
1:15 PM 44.2 °F 37.6 °F 30.0 °F 57% 29.87 in 10.0 mi South 13.8 mph - N/A   Clear
1:35 PM 44.2 °F 37.6 °F 30.2 °F 58% 29.86 in 10.0 mi South 13.8 mph 18.4 mph N/A   Clear
1:55 PM 44.6 °F 38.8 °F 30.2 °F 57% 29.85 in 10.0 mi South 11.5 mph 17.3 mph N/A   Clear
2:15 PM 44.6 °F 38.1 °F 30.0 °F 57% 29.84 in 10.0 mi South 13.8 mph - N/A   Clear
2:35 PM 44.6 °F 38.4 °F 30.0 °F 57% 29.84 in 10.0 mi South 12.7 mph - N/A   Clear
2:55 PM 44.8 °F 39.4 °F 30.0 °F 56% 29.84 in 10.0 mi South 10.4 mph - N/A   Clear
3:15 PM 44.8 °F 38.7 °F 29.7 °F 55% 29.84 in 10.0 mi South 12.7 mph - N/A   Clear
3:35 PM 45.0 °F 38.2 °F 29.3 °F 54% 29.84 in 10.0 mi South 15.0 mph 18.4 mph N/A   Clear
3:55 PM 44.8 °F 38.0 °F 28.9 °F 54% 29.83 in 10.0 mi South 15.0 mph 23.0 mph N/A   Clear
4:15 PM 44.4 °F 38.2 °F 28.8 °F 54% 29.83 in 10.0 mi South 12.7 mph - N/A   Clear
4:35 PM 43.7 °F 36.9 °F 28.6 °F 55% 29.82 in 10.0 mi South 13.8 mph 18.4 mph N/A   Clear
4:55 PM 42.3 °F 35.5 °F 28.8 °F 59% 29.82 in 10.0 mi South 12.7 mph - N/A   Clear
5:15 PM 41.2 °F 34.5 °F 29.1 °F 62% 29.82 in 10.0 mi South 11.5 mph - N/A   Clear
5:35 PM 41.4 °F 34.7 °F 29.5 °F 63% 29.81 in 10.0 mi South 11.5 mph - N/A   Clear
5:55 PM 41.4 °F 34.7 °F 29.3 °F 62% 29.81 in 10.0 mi South 11.5 mph - N/A   Clear
6:15 PM 41.2 °F 35.0 °F 29.7 °F 64% 29.81 in 10.0 mi South 10.4 mph - N/A   Clear
6:35 PM 39.9 °F 33.4 °F 29.3 °F 66% 29.82 in 10.0 mi South 10.4 mph - N/A   Clear
6:55 PM 38.8 °F 32.6 °F 29.1 °F 68% 29.83 in 10.0 mi South 9.2 mph - N/A   Clear
7:15 PM 38.8 °F 32.1 °F 29.3 °F 69% 29.82 in 10.0 mi South 10.4 mph - N/A   Clear
7:35 PM 37.6 °F 29.6 °F 29.3 °F 72% 29.83 in 10.0 mi SSW 12.7 mph - N/A   Clear
7:55 PM 38.7 °F 30.9 °F 29.3 °F 69% 29.83 in 10.0 mi SSW 12.7 mph - N/A   Clear
8:15 PM 38.3 °F 30.9 °F 29.1 °F 70% 29.83 in 10.0 mi South 11.5 mph - N/A   Clear
8:35 PM 38.3 °F 30.1 °F 28.8 °F 69% 29.83 in 10.0 mi SSW 13.8 mph - N/A   Clear
8:55 PM 39.6 °F 31.7 °F 28.6 °F 65% 29.83 in 10.0 mi SSW 13.8 mph - N/A   Clear
9:15 PM 38.8 °F 30.8 °F 28.8 °F 67% 29.85 in 10.0 mi SW 13.8 mph - N/A   Clear
9:35 PM 38.3 °F 30.1 °F 28.8 °F 69% 29.86 in 10.0 mi WSW 13.8 mph - N/A   Clear
9:55 PM 37.8 °F 29.4 °F 28.8 °F 70% 29.87 in 10.0 mi West 13.8 mph 18.4 mph N/A   Clear
10:15 PM 36.7 °F 28.9 °F 29.3 °F 75% 29.88 in 10.0 mi WNW 11.5 mph 17.3 mph N/A   Clear
10:35 PM 35.8 °F 26.1 °F 29.7 °F 78% 29.89 in 10.0 mi NW 16.1 mph 21.9 mph N/A   Scattered Clouds
10:55 PM 34.9 °F 23.3 °F 30.0 °F 82% 29.89 in 10.0 mi NW 21.9 mph 28.8 mph N/A   Mostly Cloudy
11:15 PM 32.4 °F 20.3 °F 28.9 °F 87% 29.90 in 10.0 mi NW 20.7 mph 29.9 mph N/A   Overcast
11:35 PM 31.1 °F 18.6 °F 27.3 °F 86% 29.91 in 10.0 mi NW 20.7 mph 27.6 mph N/A   Overcast
11:55 PM 30.0 °F 15.4 °F 25.7 °F 84% 29.92 in 10.0 mi NW 27.6 mph 32.2 mph N/A   Overcast